Estación de Purranque

Ultimos registro cada 15 minutos 61
Estación Fecha / Hora Temperatura Humedad Lluvia Velocidad Dirección Radiación Presion
61 Purranque 01-09-2026 15:00 10,3 94,3 0 1,7 28 193,1 1005,1
60 Purranque 01-09-2026 14:45 9,9 94,2 0 2 27 123,1 1005,2
59 Purranque 01-09-2026 14:30 9,7 95 0 2 32 115,6 1005,4
58 Purranque 01-09-2026 14:15 9,7 95,5 0 1,7 35 150,6 1005,7
57 Purranque 01-09-2026 14:00 9,8 95,1 0 2 31 200,6 1005,8
56 Purranque 01-09-2026 13:45 9,5 95,9 0 1,3 41 251,9 1006,3
55 Purranque 01-09-2026 13:30 9,2 96,8 0,4 1,7 31 139,4 1006,5
54 Purranque 01-09-2026 13:15 8,9 97,1 0,2 1,7 31 125,6 1006,8
53 Purranque 01-09-2026 13:00 8,5 96,7 0,4 1,7 28 154,4 1007,1
52 Purranque 01-09-2026 12:45 8,4 96,5 0,2 1,7 25 59,4 1007,4
51 Purranque 01-09-2026 12:30 8,3 95,4 0 2 24 54,4 1007,5
50 Purranque 01-09-2026 12:15 8,6 93,5 0 1,7 15 64,4 1007,7
49 Purranque 01-09-2026 12:00 8,8 93,2 0 2 22 163,1 1007,6
48 Purranque 01-09-2026 11:45 8,6 92,2 0 2 21 156,9 1007,8
47 Purranque 01-09-2026 11:30 8,6 92,2 0 1,7 14 128,1 1008,2
46 Purranque 01-09-2026 11:15 8,4 92,3 0 2 22 130,6 1007,9
45 Purranque 01-09-2026 11:00 8,4 92,3 0 2,7 24 129,4 1008,4
44 Purranque 01-09-2026 10:45 8,3 91,9 0 1,7 17 175,6 1008,2
43 Purranque 01-09-2026 10:30 8,1 92,5 0 2,7 21 168,1 1008,4
42 Purranque 01-09-2026 10:15 8 92,7 0 2,3 21 123,1 1008,5
41 Purranque 01-09-2026 10:00 8 92,6 0 2,7 27 183,1 1008,5
40 Purranque 01-09-2026 09:45 8 92,9 0 2,3 28 175,6 1008,4
39 Purranque 01-09-2026 09:30 7,9 92,7 0 2 29 225,6 1008,6
38 Purranque 01-09-2026 09:15 7,7 95,5 0 1,7 29 233,1 1008,5
37 Purranque 01-09-2026 09:00 7,2 95,8 0 1,7 37 91,9 1008,3
36 Purranque 01-09-2026 08:45 7,1 95,7 0 1,3 37 78,1 1008,4
35 Purranque 01-09-2026 08:30 6,9 96,7 0 1 34 85,6 1008,7
34 Purranque 01-09-2026 08:15 6,7 97 0 0,7 31 50,6 1008,6
33 Purranque 01-09-2026 08:00 6,5 97,4 0 1 22 30,6 1008,5
32 Purranque 01-09-2026 07:45 6,4 97,6 0 1 29 11,9 1008,5
31 Purranque 01-09-2026 07:30 6,1 98,3 0 1 48 5,6 1008,3
30 Purranque 01-09-2026 07:15 5,9 99,2 0 0,7 49 0,6 1008,2
29 Purranque 01-09-2026 07:00 5,8 99,5 0 0,3 49 0,6 1008,4
28 Purranque 01-09-2026 06:45 5,7 99,9 0 0,3 53 0,6 1008,5
27 Purranque 01-09-2026 06:30 5,4 99,5 0 0 53 0,6 1008,6
26 Purranque 01-09-2026 06:15 5,6 99,1 0 0 53 0,6 1008,7
25 Purranque 01-09-2026 06:00 5,3 98,6 0 0 53 0,6 1008,6
24 Purranque 01-09-2026 05:45 5,8 98,5 0 0,3 53 0,6 1008,5
23 Purranque 01-09-2026 05:30 5,7 98,3 0 0,7 53 0,6 1008,5
22 Purranque 01-09-2026 05:15 5,9 98,3 0 0,7 45 0,6 1008,6
21 Purranque 01-09-2026 05:00 5,9 98,6 0 0,3 53 0,6 1008,6
20 Purranque 01-09-2026 04:45 5,7 98,7 0 0,7 49 0,6 1008,5
19 Purranque 01-09-2026 04:30 5,9 98,7 0 0,3 44 0,6 1008,7
18 Purranque 01-09-2026 04:15 5,8 98,4 0 0,3 53 0,6 1008,6
17 Purranque 01-09-2026 04:00 5,9 98,6 0 0,3 65 0,6 1008,7
16 Purranque 01-09-2026 03:45 5,8 98,6 0,2 1 77 0,6 1008,7
15 Purranque 01-09-2026 03:30 5,8 97,8 0 0,3 65 0,6 1009,3
14 Purranque 01-09-2026 03:15 5,9 98 0 0,7 67 0,6 1009,2
13 Purranque 01-09-2026 03:00 5,9 97,8 0 0,7 80 0,6 1009,3
12 Purranque 01-09-2026 02:45 5,8 97,4 0 0,3 60 0,6 1009,7
11 Purranque 01-09-2026 02:30 6,1 96,8 0 0,3 41 0,6 1009,9
10 Purranque 01-09-2026 02:15 6,2 96,7 0 0,7 35 0,6 1010,1
9 Purranque 01-09-2026 02:00 6,6 96,1 0 1 35 0,6 1010,1
8 Purranque 01-09-2026 01:45 6,6 96,1 0 1 22 0,6 1010,1
7 Purranque 01-09-2026 01:30 6,5 97 0 0,7 29 0,6 1010,2
6 Purranque 01-09-2026 01:15 6,5 96,8 0 0,7 42 0,6 1010,2
5 Purranque 01-09-2026 01:00 6,5 96,5 0 0,7 44 0,6 1010,2
4 Purranque 01-09-2026 00:45 6,6 97 0 1 37 0,6 1010,4
3 Purranque 01-09-2026 00:30 6,3 98,6 0 0,7 63 0,6 1010,5
2 Purranque 01-09-2026 00:15 6 99,1 0 0,7 80 0,6 1010,8
1 Purranque 01-09-2026 00:00 6,1 98,7 0 0 80 0,6 1011